Location: New Mesquite
(33.1168°N, 96.4336°W)
Time: 17:51:29
(UTC+00:00)

Okean 1 - Pass Details

Date: 10 July 2022
Orbit: 532 x 552 km, 82.5° (Epoch: 18 August)

Event Time Altitude Azimuth Distance (km) Brightness Sun altitude
Rises 09:48:07 0° 332° (NNW) 2,680 7.0 -17.4°
Reaches altitude 10° 09:50:53 10° 312° (NW) 1,784 5.9 -17.0°
Enters shadow 09:52:33 16° 287° (WNW) 1,460 5.2 -16.8°
